Time,TemperatureF,DewpointF,PressureIn,WindDirection,WindDirectionDegrees,WindSpeedMPH,WindSpeedGustMPH,Humidity,HourlyPrecipIn,Conditions,Clouds,dailyrainin,SolarRadiationWatts/m^2,SoftwareType,DateUTC
2013-08-25 00:14:00,76.6,74.0,30.06,SSW,203,0.0,0.0,90,0.00,,,0.00,0,weatherlink.com 1.10,2013-08-25 04:14:00,
2013-08-25 00:29:00,77.1,74.0,30.05,SSW,203,0.0,1.0,91,0.00,,,0.00,0,weatherlink.com 1.10,2013-08-25 04:29:00,
2013-08-25 00:44:00,77.1,74.0,30.04,SSW,203,0.0,0.0,91,0.00,,,0.00,0,weatherlink.com 1.10,2013-08-25 04:44:00,
2013-08-25 00:59:00,77.3,75.0,30.04,SSW,203,0.0,0.0,91,0.00,,,0.00,0,weatherlink.com 1.10,2013-08-25 04:59:00,
2013-08-25 01:14:00,76.9,74.0,30.04,SSW,203,1.0,1.0,91,0.00,,,0.00,0,weatherlink.com 1.10,2013-08-25 05:14:00,
2013-08-25 01:29:00,76.9,75.0,30.03,SSW,203,0.0,0.0,92,0.00,,,0.00,0,weatherlink.com 1.10,2013-08-25 05:29:00,
2013-08-25 01:44:00,77.0,75.0,30.02,SSW,203,0.0,0.0,92,0.00,,,0.00,0,weatherlink.com 1.10,2013-08-25 05:44:00,
2013-08-25 01:59:00,77.0,75.0,30.02,SSW,203,0.0,1.0,92,0.00,,,0.00,0,weatherlink.com 1.10,2013-08-25 05:59:00,
2013-08-25 02:14:00,77.0,75.0,30.02,SSW,203,0.0,0.0,92,0.00,,,0.00,0,weatherlink.com 1.10,2013-08-25 06:14:00,
2013-08-25 02:29:00,77.3,75.0,30.02,SSW,203,0.0,0.0,92,0.00,,,0.00,0,weatherlink.com 1.10,2013-08-25 06:29:00,
2013-08-25 02:44:00,77.2,75.0,30.02,SSW,203,0.0,0.0,92,0.00,,,0.00,0,weatherlink.com 1.10,2013-08-25 06:44:00,
2013-08-25 02:59:00,77.2,75.0,30.02,SSW,203,0.0,1.0,92,0.00,,,0.00,0,weatherlink.com 1.10,2013-08-25 06:59:00,
2013-08-25 03:14:00,77.3,75.0,30.02,SSW,203,0.0,1.0,92,0.00,,,0.00,0,weatherlink.com 1.10,2013-08-25 07:14:00,
2013-08-25 03:29:00,77.5,75.0,30.02,SSW,203,0.0,1.0,93,0.00,,,0.00,0,weatherlink.com 1.10,2013-08-25 07:29:00,
2013-08-25 03:44:00,77.4,75.0,30.02,SSW,203,0.0,1.0,93,0.00,,,0.00,0,weatherlink.com 1.10,2013-08-25 07:44:00,
2013-08-25 03:59:00,77.3,75.0,30.02,SSW,203,0.0,1.0,93,0.00,,,0.00,0,weatherlink.com 1.10,2013-08-25 07:59:00,
2013-08-25 04:14:00,77.1,75.0,30.03,WSW,252,0.0,2.0,93,0.00,,,0.00,0,weatherlink.com 1.10,2013-08-25 08:14:00,
2013-08-25 04:29:00,77.0,75.0,30.03,WSW,252,0.0,1.0,93,0.00,,,0.00,0,weatherlink.com 1.10,2013-08-25 08:29:00,
2013-08-25 04:44:00,77.0,75.0,30.03,WSW,252,0.0,1.0,93,0.00,,,0.00,0,weatherlink.com 1.10,2013-08-25 08:44:00,
2013-08-25 04:59:00,76.7,74.0,30.04,WSW,253,0.0,2.0,92,0.00,,,0.00,0,weatherlink.com 1.10,2013-08-25 08:59:00,
2013-08-25 05:14:00,76.7,74.0,30.04,WNW,297,0.0,1.0,92,0.00,,,0.00,0,weatherlink.com 1.10,2013-08-25 09:14:00,
2013-08-25 05:29:00,76.7,74.0,30.04,NW,304,1.0,2.0,92,0.00,,,0.00,0,weatherlink.com 1.10,2013-08-25 09:29:00,
2013-08-25 05:44:00,76.6,74.0,30.05,NW,306,0.0,2.0,92,0.00,,,0.00,0,weatherlink.com 1.10,2013-08-25 09:44:00,
2013-08-25 05:59:00,76.6,74.0,30.06,NW,311,0.0,2.0,92,0.00,,,0.00,0,weatherlink.com 1.10,2013-08-25 09:59:00,
2013-08-25 06:14:00,76.7,74.0,30.06,NNW,329,1.0,3.0,91,0.00,,,0.00,0,weatherlink.com 1.10,2013-08-25 10:14:00,
2013-08-25 06:29:00,76.8,74.0,30.07,NW,309,0.0,4.0,91,0.00,,,0.00,0,weatherlink.com 1.10,2013-08-25 10:29:00,
2013-08-25 06:44:00,76.7,74.0,30.07,WNW,288,0.0,2.0,91,0.00,,,0.00,0,weatherlink.com 1.10,2013-08-25 10:44:00,
2013-08-25 06:59:00,76.9,74.0,30.09,SE,134,7.0,8.0,91,0.00,,,0.00,0,weatherlink.com 1.10,2013-08-25 10:59:00,
2013-08-25 07:14:00,75.7,72.0,30.09,ESE,115,1.0,3.0,89,0.00,,,0.00,0,weatherlink.com 1.10,2013-08-25 11:14:00,
2013-08-25 07:29:00,75.8,72.0,30.09,ESE,114,0.0,3.0,88,0.00,,,0.00,9,weatherlink.com 1.10,2013-08-25 11:29:00,
2013-08-25 07:44:00,75.9,72.0,30.09,ESE,114,0.0,1.0,88,0.00,,,0.00,25,weatherlink.com 1.10,2013-08-25 11:44:00,
2013-08-25 07:59:00,76.1,72.0,30.09,ESE,114,0.0,1.0,88,0.00,,,0.00,39,weatherlink.com 1.10,2013-08-25 11:59:00,
2013-08-25 08:14:00,76.4,73.0,30.10,ESE,114,0.0,1.0,88,0.00,,,0.00,53,weatherlink.com 1.10,2013-08-25 12:14:00,
2013-08-25 08:29:00,76.7,73.0,30.10,ESE,114,0.0,1.0,88,0.00,,,0.00,72,weatherlink.com 1.10,2013-08-25 12:29:00,
2013-08-25 08:44:00,77.6,74.0,30.09,ENE,69,0.0,2.0,88,0.00,,,0.00,97,weatherlink.com 1.10,2013-08-25 12:44:00,
2013-08-25 08:59:00,78.5,75.0,30.11,ENE,66,0.0,1.0,88,0.00,,,0.00,88,weatherlink.com 1.10,2013-08-25 12:59:00,
2013-08-25 09:14:00,78.7,75.0,30.11,ENE,66,0.0,1.0,88,0.00,,,0.00,56,weatherlink.com 1.10,2013-08-25 13:14:00,
2013-08-25 09:30:00,79.0,75.0,30.12,East,89,0.0,3.0,88,0.00,,,0.00,127,weatherlink.com 1.10,2013-08-25 13:30:00,
2013-08-25 09:45:00,79.6,76.0,30.13,South,181,1.0,2.0,87,0.00,,,0.00,171,weatherlink.com 1.10,2013-08-25 13:45:00,
2013-08-25 10:00:00,79.4,75.0,30.14,WNW,301,0.0,2.0,87,0.00,,,0.00,216,weatherlink.com 1.10,2013-08-25 14:00:00,
2013-08-25 10:15:00,80.5,75.0,30.14,WSW,242,1.0,2.0,84,0.00,,,0.00,316,weatherlink.com 1.10,2013-08-25 14:15:00,
2013-08-25 10:30:00,82.3,76.0,30.13,SW,228,1.0,3.0,81,0.00,,,0.00,431,weatherlink.com 1.10,2013-08-25 14:30:00,
2013-08-25 10:45:00,81.6,75.0,30.13,SSE,151,0.0,3.0,80,0.00,,,0.00,436,weatherlink.com 1.10,2013-08-25 14:45:00,
2013-08-25 11:00:00,81.5,75.0,30.14,ESE,116,0.0,4.0,81,0.00,,,0.00,415,weatherlink.com 1.10,2013-08-25 15:00:00,
2013-08-25 11:15:00,81.9,75.0,30.13,ESE,103,1.0,3.0,79,0.00,,,0.00,566,weatherlink.com 1.10,2013-08-25 15:15:00,
2013-08-25 11:30:00,82.4,74.0,30.13,East,82,3.0,9.0,76,0.00,,,0.00,563,weatherlink.com 1.10,2013-08-25 15:30:00,
2013-08-25 11:45:00,82.1,73.0,30.13,ENE,76,2.0,8.0,73,0.00,,,0.00,448,weatherlink.com 1.10,2013-08-25 15:45:00,
2013-08-25 12:00:00,82.8,73.0,30.13,East,96,6.0,8.0,73,0.00,,,0.00,591,weatherlink.com 1.10,2013-08-25 16:00:00,
2013-08-25 12:15:00,83.4,74.0,30.13,ENE,78,3.0,8.0,74,0.00,,,0.00,615,weatherlink.com 1.10,2013-08-25 16:15:00,
2013-08-25 12:30:00,83.6,75.0,30.13,ESE,109,6.0,7.0,74,0.00,,,0.00,598,weatherlink.com 1.10,2013-08-25 16:30:00,
2013-08-25 12:45:00,82.9,75.0,30.12,ESE,106,2.0,8.0,76,0.00,,,0.00,471,weatherlink.com 1.10,2013-08-25 16:45:00,
2013-08-25 13:00:00,82.9,75.0,30.12,East,98,2.0,8.0,76,0.00,,,0.00,403,weatherlink.com 1.10,2013-08-25 17:00:00,
2013-08-25 13:15:00,82.8,75.0,30.10,ESE,117,2.0,8.0,78,0.00,,,0.00,657,weatherlink.com 1.10,2013-08-25 17:15:00,
2013-08-25 13:30:00,83.5,76.0,30.10,East,97,4.0,7.0,78,0.00,,,0.00,443,weatherlink.com 1.10,2013-08-25 17:30:00,
2013-08-25 13:45:00,83.2,76.0,30.09,East,86,2.0,8.0,78,0.00,,,0.00,432,weatherlink.com 1.10,2013-08-25 17:45:00,
2013-08-25 14:00:00,83.6,75.0,30.08,East,92,2.0,8.0,76,0.00,,,0.00,526,weatherlink.com 1.10,2013-08-25 18:00:00,
2013-08-25 14:15:00,83.7,76.0,30.08,East,81,3.0,8.0,77,0.00,,,0.00,508,weatherlink.com 1.10,2013-08-25 18:15:00,
2013-08-25 14:30:00,83.6,76.0,30.07,ESE,120,1.0,7.0,77,0.00,,,0.00,448,weatherlink.com 1.10,2013-08-25 18:30:00,
2013-08-25 14:45:00,83.8,76.0,30.07,East,98,2.0,8.0,77,0.00,,,0.00,1097,weatherlink.com 1.10,2013-08-25 18:45:00,
2013-08-25 15:00:00,84.5,76.0,30.06,ENE,69,3.0,8.0,76,0.00,,,0.00,603,weatherlink.com 1.10,2013-08-25 19:00:00,
2013-08-25 15:15:00,84.4,76.0,30.05,ESE,105,6.0,9.0,75,0.00,,,0.00,805,weatherlink.com 1.10,2013-08-25 19:15:00,
2013-08-25 15:30:00,85.0,77.0,30.05,East,88,4.0,9.0,76,0.00,,,0.00,860,weatherlink.com 1.10,2013-08-25 19:30:00,
2013-08-25 15:45:00,84.2,75.0,30.04,East,101,6.0,10.0,74,0.00,,,0.00,659,weatherlink.com 1.10,2013-08-25 19:45:00,
2013-08-25 16:00:00,84.1,76.0,30.04,ESE,106,8.0,9.0,76,0.00,,,0.00,687,weatherlink.com 1.10,2013-08-25 20:00:00,
2013-08-25 16:15:00,83.8,76.0,30.04,East,101,3.0,10.0,76,0.00,,,0.00,573,weatherlink.com 1.10,2013-08-25 20:15:00,
2013-08-25 16:30:00,83.3,75.0,30.04,East,96,2.0,9.0,76,0.00,,,0.00,236,weatherlink.com 1.10,2013-08-25 20:30:00,
2013-08-25 16:45:00,83.8,75.0,30.04,East,93,4.0,7.0,75,0.00,,,0.00,250,weatherlink.com 1.10,2013-08-25 20:45:00,
2013-08-25 17:00:00,83.7,74.0,30.05,East,98,4.0,6.0,72,0.00,,,0.00,271,weatherlink.com 1.10,2013-08-25 21:00:00,
2013-08-25 17:15:00,83.6,75.0,30.04,East,88,3.0,7.0,75,0.00,,,0.00,172,weatherlink.com 1.10,2013-08-25 21:15:00,
2013-08-25 17:30:00,83.2,75.0,30.05,ENE,61,4.0,9.0,77,0.00,,,0.00,188,weatherlink.com 1.10,2013-08-25 21:30:00,
2013-08-25 17:45:00,83.1,75.0,30.05,ENE,61,3.0,8.0,77,0.00,,,0.00,214,weatherlink.com 1.10,2013-08-25 21:45:00,
2013-08-25 18:00:00,83.0,76.0,30.05,ESE,118,3.0,9.0,78,0.00,,,0.00,114,weatherlink.com 1.10,2013-08-25 22:00:00,
2013-08-25 18:15:00,82.7,75.0,30.05,ENE,72,4.0,5.0,78,0.00,,,0.00,88,weatherlink.com 1.10,2013-08-25 22:15:00,
2013-08-25 18:30:00,82.7,75.0,30.05,East,85,2.0,7.0,78,0.00,,,0.00,77,weatherlink.com 1.10,2013-08-25 22:30:00,
2013-08-25 18:45:00,82.6,76.0,30.05,ESE,121,5.0,8.0,79,0.00,,,0.00,53,weatherlink.com 1.10,2013-08-25 22:45:00,
2013-08-25 19:00:00,82.5,76.0,30.05,NE,38,2.0,4.0,80,0.00,,,0.00,30,weatherlink.com 1.10,2013-08-25 23:00:00,
2013-08-25 19:15:00,82.1,75.0,30.05,East,94,1.0,4.0,79,0.00,,,0.00,16,weatherlink.com 1.10,2013-08-25 23:15:00,
2013-08-25 19:30:00,81.9,74.0,30.05,East,95,2.0,3.0,78,0.00,,,0.00,7,weatherlink.com 1.10,2013-08-25 23:30:00,
2013-08-25 19:45:00,81.8,74.0,30.06,NE,34,0.0,4.0,77,0.00,,,0.00,0,weatherlink.com 1.10,2013-08-25 23:45:00,
2013-08-25 20:00:00,81.8,74.0,30.07,NE,51,0.0,3.0,76,0.00,,,0.00,0,weatherlink.com 1.10,2013-08-26 00:00:00,
2013-08-25 20:15:00,81.9,74.0,30.07,North,5,0.0,3.0,76,0.00,,,0.00,0,weatherlink.com 1.10,2013-08-26 00:15:00,
2013-08-25 20:30:00,81.9,74.0,30.08,East,86,0.0,3.0,77,0.00,,,0.00,0,weatherlink.com 1.10,2013-08-26 00:30:00,
2013-08-25 20:45:00,81.8,74.0,30.08,NNE,32,0.0,3.0,77,0.00,,,0.00,0,weatherlink.com 1.10,2013-08-26 00:45:00,
2013-08-25 21:00:00,81.8,75.0,30.08,East,96,1.0,4.0,79,0.00,,,0.00,0,weatherlink.com 1.10,2013-08-26 01:00:00,
2013-08-25 21:15:00,81.7,75.0,30.09,East,94,1.0,2.0,80,0.00,,,0.00,0,weatherlink.com 1.10,2013-08-26 01:15:00,
2013-08-25 21:30:00,81.6,75.0,30.09,ENE,62,1.0,2.0,81,0.00,,,0.00,0,weatherlink.com 1.10,2013-08-26 01:30:00,
2013-08-25 21:45:00,81.4,75.0,30.10,ENE,57,1.0,2.0,81,0.00,,,0.00,0,weatherlink.com 1.10,2013-08-26 01:45:00,
2013-08-25 22:00:00,81.5,75.0,30.10,ENE,60,1.0,2.0,81,0.00,,,0.00,0,weatherlink.com 1.10,2013-08-26 02:00:00,
2013-08-25 22:15:00,81.4,75.0,30.10,ESE,105,1.0,2.0,82,0.00,,,0.00,0,weatherlink.com 1.10,2013-08-26 02:15:00,
2013-08-25 22:30:00,81.5,75.0,30.10,NNE,28,0.0,3.0,81,0.00,,,0.00,0,weatherlink.com 1.10,2013-08-26 02:30:00,
2013-08-25 22:45:00,81.4,75.0,30.10,ESE,113,1.0,3.0,82,0.00,,,0.00,0,weatherlink.com 1.10,2013-08-26 02:45:00,
2013-08-25 23:00:00,81.3,75.0,30.11,ENE,78,0.0,1.0,82,0.00,,,0.00,0,weatherlink.com 1.10,2013-08-26 03:00:00,
2013-08-25 23:15:00,81.2,75.0,30.10,East,97,0.0,3.0,82,0.00,,,0.00,0,weatherlink.com 1.10,2013-08-26 03:15:00,
2013-08-25 23:30:00,81.2,75.0,30.11,ESE,107,3.0,3.0,82,0.00,,,0.00,0,weatherlink.com 1.10,2013-08-26 03:30:00,
2013-08-25 23:45:00,81.2,75.0,30.11,ESE,104,0.0,2.0,82,0.00,,,0.00,0,weatherlink.com 1.10,2013-08-26 03:45:00,